Preview of NWS' New Version of Forecast
This preview is not operational and should not be used for support decisions.

Regional Weather Roundup (RWR)

Issued by National Weather Service (NWS)

                            
000
ASUS43 KTOP 232108
RWRKS 

WEATHER ROUNDUP FOR KANSAS
NATIONAL WEATHER SERVICE GOODLAND KS
400 PM CDT THU MAY 23 2019

NOTE:  "FAIR" INDICATES FEW OR NO CLOUDS BELOW 12,000 FEET WITH NO
SIGNIFICANT WEATHER AND/OR OBSTRUCTIONS TO VISIBILITY.

KSZ001>006-013>018-027>032-041>047-232200-
NORTHWEST KANSAS
  
CITY           SKY/WX    TMP DP  RH WIND       PRES   REMARKS
GOODLAND       LGT RAIN  47  45  93 NE8       30.03S                  
HAYS           CLOUDY    61  52  72 E15       29.95F                  
HILL CITY      CLOUDY    54  51  90 NE5       30.01F                  
RUSSELL        CLOUDY    63  51  65 E22G35    29.91F                  
$$

KSZ061>065-074>080-084>089-232200-
SOUTHWEST KANSAS
  
CITY           SKY/WX    TMP DP  RH WIND       PRES   REMARKS
DODGE CITY     TSTM      63  58  83 E20G30    29.90S                  
ELKHART        CLOUDY    50  50 100 N20       29.95F FOG              
GARDEN CITY    LGT RAIN  53  52  96 NE10      29.92F FOG              
GREAT BEND     CLOUDY    65  57  75 E18       29.93F                  
LIBERAL        LGT RAIN  59  58  96 N10       29.90F FOG              
PRATT          CLOUDY    68  65  90 E13       29.93F                  
$$

KSZ066>073-081>083-090>101-232200-
SOUTHEAST KANSAS
  
CITY           SKY/WX    TMP DP  RH WIND       PRES   REMARKS
CHANUTE        FAIR      81  73  76 SE10      29.99F                  
COFFEYVILLE    FAIR      85  72  65 S15G23    29.97F                  
HUTCHINSON     CLOUDY    70  64  81 E10       29.95F                  
MEDICINE LODGE   N/A     71  69  93 VRB7      29.92S                  
NEWTON         CLOUDY    69  66  90 E8        29.98F                  
PARSONS        FAIR      85  72  65 S13G23    29.99F                  
WICHITA INTL   PTSUNNY   77  69  76 E10       29.93F                  
WICHITA JABRA  CLOUDY    75  69  81 E9        29.95F                  
WICHITA MCCONL CLOUDY    79  70  73 E13       29.94                   
WINFIELD       FAIR      81  72  74 S12       29.95F                  
$$

KSZ007>012-019>026-033>040-048>060-102>105-232200-
NORTHEAST KANSAS
  
CITY           SKY/WX    TMP DP  RH WIND       PRES   REMARKS
CONCORDIA      CLOUDY    67  52  58 E9        30.02F                  
EMPORIA        CLOUDY    70  66  87 E13       30.00F                  
LAWRENCE       CLOUDY    74  60  61 E8        30.04S                  
MANHATTAN      CLOUDY    73  58  59 E14G22    30.01F                  
MARYSVILLE     CLOUDY    68  54  60 E7        30.07S                  
OLATHE IND     CLOUDY    73  63  70 E6        30.05F                  
OLATHE EXE     CLOUDY    72  63  73 E7        30.04F                  
SALINA         CLOUDY    70  58  65 E14G24    29.99F                  
TOPEKA BILLARD CLOUDY    74  58  57 E8        30.03F                  
TOPEKA FORBES  CLOUDY    72  60  66 E10       30.03F                  
$$